PDT,Max TemperatureF,Mean TemperatureF,Min TemperatureF,Max Dew PointF,MeanDew PointF,Min DewpointF,Max Humidity, Mean Humidity, Min Humidity, Max Sea Level PressureIn, Mean Sea Level PressureIn, Min Sea Level PressureIn, Max VisibilityMiles, Mean VisibilityMiles, Min VisibilityMiles, Max Wind SpeedMPH, Mean Wind SpeedMPH, Max Gust SpeedMPH,PrecipitationIn, CloudCover, Events, WindDirDegrees
2012-5-1,83,74,65,54,52,49,63,49,34,29.79,29.73,29.66,10,10,10,24,9,32,0.00,1,,319
2012-5-2,82,73,63,51,48,46,67,48,28,29.81,29.76,29.69,10,10,10,25,10,32,0.00,1,,313
2012-5-3,86,74,61,50,48,45,60,43,25,29.89,29.84,29.79,10,10,10,21,9,28,0.00,0,,311
2012-5-4,90,75,60,52,46,38,67,42,16,29.93,29.87,29.83,10,10,10,24,6,30,0.00,0,,319
2012-5-5,94,77,60,50,39,18,56,32,7,29.91,29.85,29.78,10,10,10,15,3,18,0.00,0,,318
2012-5-6,95,81,67,48,34,13,44,25,5,29.86,29.82,29.78,10,10,10,16,8,18,0.00,0,,309
2012-5-7,96,79,62,47,26,6,52,28,4,29.90,29.82,29.73,10,10,10,23,7,29,0.00,0,,321
2012-5-8,96,82,67,37,20,6,27,16,4,29.85,29.81,29.77,10,10,10,23,10,31,0.00,0,,355
2012-5-9,104,85,66,36,25,17,32,19,5,29.81,29.75,29.66,10,10,10,18,5,32,0.00,0,,301
2012-5-10,101,86,70,48,39,26,44,26,8,29.81,29.73,29.63,10,10,10,21,5,28,0.00,0,,63
2012-5-11,97,81,65,47,39,28,48,30,11,29.81,29.75,29.69,10,10,10,21,6,28,0.00,0,,323
2012-5-12,100,84,67,53,46,29,58,33,8,29.93,29.87,29.82,10,10,10,10,4,15,0.00,0,,65
2012-5-13,107,88,68,53,40,21,53,30,6,29.89,29.84,29.78,10,10,10,21,5,26,0.00,0,,310
2012-5-14,105,87,69,51,39,21,43,25,6,29.86,29.79,29.73,10,10,10,22,8,30,0.00,0,,305
2012-5-15,101,84,66,45,34,11,40,22,4,29.76,29.72,29.67,10,10,10,22,7,26,0.00,0,,306
2012-5-16,106,87,68,49,36,22,49,28,6,29.78,29.72,29.65,10,10,10,13,3,17,0.00,0,,111
2012-5-17,101,88,74,56,48,41,46,31,15,29.75,29.66,29.57,10,10,10,13,5,20,0.00,0,,98
2012-5-18,92,79,66,50,47,41,49,35,20,29.73,29.66,29.59,10,10,10,24,11,31,0.00,0,,314
2012-5-19,102,84,66,51,40,22,58,32,6,29.79,29.75,29.70,10,10,10,13,4,17,0.00,0,,308
2012-5-20,106,90,74,53,37,24,49,28,6,29.83,29.79,29.73,10,10,10,16,7,20,0.00,0,,59
2012-5-21,109,92,74,53,40,32,46,27,8,29.81,29.77,29.70,10,10,10,13,3,18,0.00,0,,297
2012-5-22,107,90,73,48,40,29,33,21,8,29.76,29.69,29.59,10,10,10,23,6,29,0.00,0,,315
2012-5-23,99,87,74,52,48,42,41,29,16,29.60,29.53,29.45,10,10,10,30,9,41,0.00,0,,321
2012-5-24,98,84,70,53,49,38,57,36,14,29.60,29.50,29.42,10,10,10,22,9,28,0.00,0,,318
2012-5-25,83,75,66,53,43,29,59,41,23,29.74,29.58,29.48,10,10,10,31,9,37,0.00,0,Rain,336
2012-5-26,79,67,54,43,35,30,51,36,20,29.90,29.84,29.75,10,10,10,28,11,37,0.00,0,,6
2012-5-27,90,74,57,45,36,24,62,36,9,29.96,29.90,29.83,10,10,10,17,2,20,0.00,0,,176
2012-5-28,96,81,66,44,33,22,42,25,7,29.89,29.84,29.77,10,10,10,14,6,23,0.00,0,,16
2012-5-29,100,83,66,48,38,26,52,31,9,29.87,29.82,29.77,10,10,10,10,4,17,0.00,0,,259
2012-5-30,102,85,67,47,40,27,41,25,9,29.88,29.82,29.75,10,10,10,22,6,28,0.00,0,,316
2012-5-31,114,92,70,51,36,16,43,23,3,29.79,29.71,29.60,10,10,10,10,3,15,0.00,0,,269